Location: Dammartin
(48.9032°N, 1.6195°E)
Time: 14:41:46
(UTC+00:00)

RESURS DK-1 - Pass Details

Date: 03 February 2023
Orbit: 549 x 558 km, 69.9° (Epoch: 29 March)

Event Time Altitude Azimuth Distance (km) Brightness Sun altitude
Rises 18:12:25 0° 332° (NNW) 2,739 6.1 -13.1°
Reaches altitude 10° 18:14:38 10° 336° (NNW) 1,842 5.2 -13.5°
Maximum altitude 18:18:43 61° 57° (ENE) 635 2.3 -14.2°
Drops below altitude 10° 18:22:47 10° 139° (SE) 1,836 4.7 -14.8°
Enters shadow 18:23:05 - 139° (SE) 1,956 4.8 -14.9°
